This is the latest recevied weather packets stored in our database for station/object SQ9SMC-13. If no packets are shown the sender has not sent any weather packets the latest 10 day(s).
| Time | Temp. | Humidity | Pressure | Rain* | Wind** | Luminosity | Snow |
|---|---|---|---|---|---|---|---|
| 1777812902 | 26.11° C | 28% | 1018.5 hPa | 0 mm | - | 545 W/m² | - |
| 1777812604 | 25.56° C | 28% | 1018.6 hPa | 0 mm | - | 556 W/m² | - |
| 1777812302 | 25.56° C | 27% | 1018.5 hPa | 0 mm | - | 568 W/m² | - |
| 1777812003 | 25° C | 29% | 1018.6 hPa | 0 mm | - | 575 W/m² | - |
| 1777811702 | 25.56° C | 28% | 1018.9 hPa | 0 mm | - | 579 W/m² | - |
| 1777811405 | 25° C | 29% | 1018.8 hPa | 0 mm | - | 586 W/m² | - |
| 1777811102 | 25° C | 28% | 1018.7 hPa | 0 mm | - | 593 W/m² | - |
| 1777810803 | 25° C | 29% | 1018.8 hPa | 0 mm | - | 598 W/m² | - |
| 1777810502 | 25° C | 31% | 1018.9 hPa | 0 mm | - | 602 W/m² | - |
| 1777810205 | 25.56° C | 30% | 1018.9 hPa | 0 mm | - | 609 W/m² | - |
| 1777809904 | 25° C | 30% | 1018.8 hPa | 0 mm | - | 615 W/m² | - |
| 1777809603 | 25.56° C | 29% | 1018.9 hPa | 0 mm | - | 621 W/m² | - |
| 1777809302 | 25° C | 28% | 1019 hPa | 0 mm | - | 631 W/m² | - |
| 1777809003 | 25° C | 30% | 1019 hPa | 0 mm | - | 631 W/m² | - |
| 1777808703 | 25° C | 30% | 1019.1 hPa | 0 mm | - | 640 W/m² | - |
| 1777808403 | 25° C | 31% | 1019.2 hPa | 0 mm | - | 640 W/m² | - |
| 1777808103 | 25° C | 31% | 1019.4 hPa | 0 mm | - | 645 W/m² | - |
| 1777807805 | 24.44° C | 30% | 1019.2 hPa | 0 mm | - | 654 W/m² | - |
| 1777807503 | 24.44° C | 29% | 1019.4 hPa | 0 mm | - | 655 W/m² | - |
| 1777807204 | 24.44° C | 31% | 1019.3 hPa | 0 mm | - | 652 W/m² | - |
| 1777806903 | 24.44° C | 31% | 1019.5 hPa | 0 mm | - | 655 W/m² | - |
| 1777806603 | 25° C | 30% | 1019.4 hPa | 0 mm | - | 658 W/m² | - |
| 1777806304 | 24.44° C | 32% | 1019.4 hPa | 0 mm | - | 660 W/m² | - |
| 1777806003 | 24.44° C | 33% | 1019.5 hPa | 0 mm | - | 659 W/m² | - |
| 1777805704 | 25° C | 31% | 1019.6 hPa | 0 mm | - | 662 W/m² | - |
* Rain latest hour (hover to see other rain measurements)
** Current wind speed in m/s (hover to see current wind gust speed)